Probability
77 94 100 100 97 90 81 71 68 61 45 29 23 13 6 6 6 3 3 3 10 13 10 3 3 3 3 0 0 0 0 0 0 0 0 0 0 0 0 0 0 0 0
87 94 100 100 100 90 87 84 74 65 55 26 23 10 6 10 6 3 3 3 3 13 13 6 3 3 3 0 0 0 0 0 0 0 0 0 0 0 0 0 0 0 0
87 94 97 100 100 97 94 84 77 58 58 32 23 13 6 3 3 3 3 3 3 3 3 0 0 0 3 0 0 0 0 0 0 0 0 0 0 0 0 0 0 0 0
81 94 84 100 100 100 94 84 74 61 52 32 23 13 3 3 3 3 3 3 3 0 0 0 0 0 0 0 0 0 0 0 0 0 0 0 0 0 0 0 0 0 0
90 90 94 100 100 100 94 84 77 65 48 39 23 16 3 3 3 3 3 3 3 0 0 0 0 0 0 0 0 0 0 0 0 0 0 0 0 0 0 0 0 0 0
87 94 97 100 100 100 94 81 77 65 52 42 23 13 3 3 3 3 3 3 0 0 0 0 0 0 0 0 0 0 0 0 0 0 0 0 0 0 0 0 0 0 0
90 94 100 100 100 100 90 84 77 71 55 32 26 16 6 3 3 3 3 3 0 0 0 0 0 0 0 0 0 0 0 0 0 0 0 0 0 0 0 0 0 0 0
97 97 100 100 100 97 90 84 81 68 55 45 32 23 10 6 3 3 3 3 0 0 0 0 0 0 0 0 0 0 0 0 0 0 0 0 0 0 0 0 0 0 0
94 97 100 100 97 94 90 84 77 61 55 45 39 32 19 3 3 0 0 0 0 0 0 0 0 0 0 0 0 0 0 0 0 0 0 0 0 0 0 0 0 0 0
97 100 100 97 97 87 74 65 55 45 39 39 26 3 0 0 0 0 0 0 0 0 0 0 0 0 0 0 0 0 0 0 0 0 0 0 0 0 0 0 0 0 0
97 100 97 97 97 84 74 52 32 19 16 10 3 0 0 0 0 0 0 0 0 0 0 0 0 0 0 0 0 0 0 0 0 0 0 0 0 0 0 0 0 0 0
97 94 97 94 84 81 71 61 42 35 16 6 3 3 0 0 0 0 0 0 0 0 0 0 0 0 0 0 0 0 0 0 0 0 0 0 0 0 0 0 0 0 0
94 94 94 94 84 77 71 65 48 39 32 10 3 6 10 0 0 0 0 0 0 0 0 0 0 0 0 0 0 0 0 0 0 0 0 0 0 0 0 0 0 0 0
90 94 97 87 87 77 68 55 42 32 19 6 3 3 3 3 0 0 0 0 0 0 0 0 0 0 0 0 0 0 0 0 0 0 0 0 0 0 0 0 0 0 0
84 84 90 87 81 77 71 48 29 29 16 6 3 3 3 3 0 0 0 0 0 0 0 0 0 0 0 0 0 0 0 0 0 0 0 0 0 0 0 0 0 0 0
84 84 84 81 77 81 65 45 29 19 16 10 3 3 3 3 0 0 0 0 0 0 0 0 0 0 0 0 0 0 0 0 0 0 0 0 0 0 0 0 0 0 0
84 77 81 77 71 74 71 42 29 26 13 6 6 0 3 3 0 0 0 0 0 0 0 0 0 0 0 0 0 0 0 0 0 0 0 0 0 0 0 0 0 0 0
81 84 74 77 68 68 61 48 23 16 10 10 6 0 3 0 0 0 0 0 0 0 0 0 0 0 0 0 0 0 0 0 0 0 0 0 0 0 0 0 0 0 0
71 81 84 87 74 74 55 42 29 13 10 6 6 3 3 0 0 0 0 0 0 0 0 0 0 0 0 0 0 0 0 0 0 0 0 0 0 0 0 0 0 0 0
52 65 77 77 81 74 58 45 29 16 6 6 6 3 0 0 0 0 0 0 0 0 0 0 0 0 0 0 0 0 0 0 0 0 0 0 0 0 0 0 0 0 0
45 55 61 65 61 61 52 42 23 16 13 3 0 0 0 0 0 0 0 0 0 0 0 0 0 0 0 0 0 0 0 0 0 0 0 0 0 0 0 0 0 0 0
32 48 58 61 61 55 55 48 39 19 13 10 6 0 0 0 0 0 0 0 0 0 0 0 0 0 0 0 0 0 0 0 0 0 0 0 0 0 0 0 0 0 0
16 32 39 48 55 55 58 45 13 13 10 10 3 6 3 0 0 0 0 0 0 0 0 0 0 0 0 0 0 0 0 0 0 0 0 0 0 0 0 0 0 0 0
6 16 32 29 39 45 45 39 29 23 16 10 6 6 3 3 3 0 0 0 0 0 0 0 0 0 0 0 0 0 0 0 0 0 0 0 0 0 0 0 0 0 0
3 10 16 23 26 39 39 39 32 32 32 29 23 10 6 3 3 3 0 0 0 0 0 0 0 0 0 0 0 0 0 0 0 0 0 0 0 0 0 0 0 0 0
0 6 3 3 16 23 29 29 35 35 35 32 19 19 23 6 6 3 3 3 3 0 0 0 0 0 0 0 0 0 0 0 0 0 0 0 0 0 0 0 0 0 0
Height
5886 5887 5889 5891 5892 5893 5894 5895 5896 5897 5898 5898 5899 5899 5899 5900 5900 5900 5900 5900 5900 5899 5899 5898 5898 5897 5897 5896 5895 5894 5893 5892 5891 5889 5888 5886 5885 5883 5882 5880 5879 5877 5875
5884 5886 5887 5889 5890 5891 5892 5894 5895 5896 5897 5897 5898 5898 5899 5899 5899 5899 5899 5899 5899 5899 5898 5898 5897 5897 5896 5895 5894 5894 5892 5891 5890 5889 5887 5886 5884 5882 5881 5879 5878 5876 5874
5882 5883 5885 5887 5889 5890 5891 5892 5894 5895 5896 5896 5897 5897 5898 5898 5898 5898 5898 5898 5898 5898 5897 5897 5896 5896 5895 5894 5894 5893 5892 5890 5889 5888 5886 5885 5883 5882 5880 5879 5877 5875 5874
5879 5881 5883 5885 5887 5888 5890 5891 5892 5893 5894 5895 5896 5896 5897 5897 5897 5897 5897 5897 5897 5897 5896 5896 5895 5895 5894 5894 5893 5892 5891 5889 5888 5887 5885 5884 5882 5881 5879 5878 5876 5875 5873
5876 5879 5881 5883 5885 5886 5888 5889 5890 5892 5893 5894 5894 5895 5895 5896 5896 5896 5896 5896 5896 5896 5895 5895 5894 5894 5893 5892 5892 5891 5890 5888 5887 5886 5884 5883 5881 5880 5878 5877 5875 5874 5872
5874 5876 5878 5880 5882 5884 5886 5887 5889 5890 5891 5892 5893 5893 5894 5894 5895 5895 5895 5895 5895 5894 5894 5894 5893 5893 5892 5891 5890 5889 5888 5887 5886 5884 5883 5882 5880 5879 5877 5876 5874 5872 5871
5871 5873 5876 5878 5880 5882 5884 5885 5887 5888 5889 5890 5891 5892 5892 5893 5893 5893 5893 5893 5893 5893 5893 5892 5892 5891 5890 5890 5889 5888 5887 5886 5884 5883 5881 5880 5879 5877 5876 5874 5872 5871 5869
5867 5870 5873 5875 5878 5880 5881 5883 5885 5886 5887 5888 5889 5890 5891 5891 5891 5892 5892 5892 5891 5891 5891 5891 5890 5890 5889 5888 5887 5886 5885 5884 5882 5881 5880 5878 5877 5875 5874 5872 5870 5869 5867
5863 5867 5870 5872 5875 5877 5879 5881 5882 5884 5885 5886 5887 5888 5889 5889 5890 5890 5890 5890 5890 5890 5889 5889 5888 5887 5887 5886 5885 5884 5883 5882 5880 5879 5878 5876 5875 5873 5871 5870 5868 5866 5864
5860 5863 5866 5869 5872 5874 5876 5878 5880 5881 5883 5884 5885 5886 5887 5887 5887 5888 5888 5888 5888 5887 5887 5887 5886 5885 5884 5884 5883 5882 5881 5879 5878 5877 5875 5874 5872 5870 5869 5867 5865 5863 5861
5856 5859 5863 5866 5868 5871 5873 5875 5877 5878 5880 5881 5882 5883 5884 5884 5885 5885 5885 5885 5885 5885 5885 5884 5884 5883 5882 5881 5880 5879 5878 5876 5875 5874 5872 5871 5869 5867 5865 5863 5861 5859 5857
5851 5855 5858 5862 5864 5867 5869 5871 5873 5875 5876 5878 5879 5880 5881 5882 5882 5882 5883 5883 5883 5882 5882 5881 5881 5880 5879 5878 5877 5876 5875 5873 5872 5870 5869 5867 5865 5863 5862 5860 5858 5855 5853
5846 5850 5853 5857 5860 5863 5865 5867 5869 5871 5873 5874 5876 5877 5878 5879 5879 5880 5880 5880 5880 5879 5879 5878 5878 5877 5876 5875 5874 5873 5871 5870 5868 5867 5865 5863 5861 5859 5857 5855 5853 5851 5849
5841 5845 5849 5852 5855 5858 5861 5863 5865 5867 5869 5871 5872 5873 5874 5875 5876 5876 5876 5876 5876 5876 5876 5875 5874 5873 5872 5871 5870 5869 5867 5866 5864 5862 5861 5859 5857 5855 5853 5851 5848 5846 5844
5835 5839 5843 5847 5850 5853 5856 5858 5861 5863 5864 5866 5868 5869 5870 5871 5872 5872 5872 5872 5872 5872 5872 5871 5870 5869 5868 5867 5866 5865 5863 5861 5860 5858 5856 5854 5852 5850 5848 5846 5843 5841 5839
5829 5834 5838 5841 5845 5848 5851 5853 5855 5858 5859 5861 5863 5864 5865 5866 5867 5868 5868 5868 5868 5868 5868 5867 5866 5865 5864 5863 5862 5860 5859 5857 5855 5853 5851 5849 5847 5845 5842 5840 5838 5835 5833
5823 5827 5831 5835 5839 5842 5845 5848 5850 5852 5854 5856 5857 5859 5860 5861 5862 5863 5863 5863 5863 5863 5863 5862 5861 5860 5859 5858 5857 5855 5854 5852 5850 5847 5845 5843 5841 5839 5837 5834 5832 5829 5827
5816 5820 5825 5829 5832 5836 5839 5841 5844 5846 5848 5850 5852 5853 5854 5856 5856 5857 5857 5858 5858 5858 5857 5857 5856 5855 5854 5853 5851 5850 5848 5846 5844 5842 5839 5837 5835 5833 5830 5828 5825 5823 5820
5809 5813 5818 5822 5825 5829 5832 5835 5837 5839 5841 5843 5845 5847 5848 5849 5850 5851 5851 5852 5852 5852 5852 5851 5850 5849 5848 5847 5846 5844 5842 5841 5838 5836 5833 5831 5828 5826 5823 5821 5818 5815 5813
5801 5806 5811 5814 5818 5821 5824 5827 5830 5832 5835 5836 5838 5840 5841 5842 5843 5844 5844 5845 5845 5845 5845 5845 5844 5843 5842 5841 5839 5838 5836 5834 5832 5829 5827 5824 5821 5819 5816 5813 5811 5808 5805
5794 5798 5803 5807 5810 5813 5817 5820 5823 5825 5827 5829 5831 5832 5833 5835 5836 5837 5837 5837 5838 5838 5838 5837 5837 5836 5835 5833 5832 5831 5830 5827 5825 5822 5820 5817 5814 5811 5808 5805 5802 5799 5797
5786 5790 5794 5798 5802 5805 5808 5811 5814 5817 5819 5821 5822 5824 5825 5826 5828 5828 5829 5830 5830 5830 5830 5829 5829 5828 5827 5826 5825 5823 5822 5821 5818 5815 5812 5809 5806 5803 5800 5797 5794 5791 5788
5777 5782 5786 5790 5793 5797 5799 5803 5805 5808 5810 5812 5814 5815 5816 5818 5819 5820 5821 5821 5821 5822 5821 5821 5821 5820 5819 5818 5816 5814 5813 5812 5811 5809 5805 5801 5797 5794 5791 5788 5785 5782 5778
5768 5773 5777 5781 5784 5787 5791 5794 5797 5799 5801 5803 5804 5806 5807 5808 5810 5811 5812 5812 5813 5813 5813 5812 5812 5811 5810 5809 5808 5806 5804 5802 5800 5799 5798 5794 5790 5786 5782 5779 5776 5772 5769
5759 5763 5767 5771 5775 5778 5781 5785 5787 5789 5791 5793 5795 5796 5798 5799 5800 5801 5802 5803 5803 5804 5803 5803 5802 5801 5801 5800 5798 5797 5795 5792 5790 5788 5787 5785 5781 5777 5773 5770 5766 5763 5760
5749 5754 5758 5762 5765 5769 5772 5774 5777 5780 5781 5783 5785 5787 5788 5789 5790 5791 5792 5793 5793 5794 5794 5793 5792 5792 5791 5790 5788 5787 5785 5783 5781 5778 5776 5774 5771 5768 5764 5760 5756 5753 5750
Wind_Speed
17 16 16 15 14 13 12 11 10 9 9 8 7 6 6 5 4 3 2 2 2 2 3 4 5 6 6 7 7 8 9 10 11 12 12 13 14 14 15 15 15 15 16
18 18 17 16 15 13 12 11 10 10 9 8 8 7 6 5 4 3 2 2 2 3 4 5 5 6 7 7 8 8 9 10 11 12 13 14 14 14 15 15 15 15 16
20 19 18 17 15 14 13 12 11 10 9 9 8 7 7 6 5 4 3 3 3 4 4 5 5 6 7 7 8 9 10 10 11 12 13 14 14 15 15 15 15 15 15
21 20 18 17 16 14 13 12 11 11 10 9 9 8 7 6 5 4 3 3 3 4 5 5 6 6 7 8 9 9 10 10 11 12 13 14 15 15 15 16 15 15 15
23 21 19 18 16 15 14 13 12 11 11 10 9 8 7 6 5 4 4 4 4 5 5 6 6 7 7 8 9 10 10 11 12 13 14 14 15 16 16 16 16 16 16
24 23 21 19 17 16 15 13 12 12 11 10 9 9 8 7 6 5 4 4 4 5 5 6 7 7 8 9 10 10 11 12 12 13 14 15 15 16 17 17 17 17 17
26 24 22 20 19 18 16 15 13 12 12 11 10 9 8 7 6 6 5 5 5 6 6 7 7 8 9 10 11 11 12 13 13 14 15 16 16 17 17 18 18 18 18
27 26 24 22 20 19 17 16 15 13 12 11 11 10 9 8 7 7 6 6 6 7 7 8 8 9 10 11 11 12 13 14 14 15 16 17 18 18 19 19 19 19 20
29 27 25 24 22 20 19 17 16 15 14 12 11 11 10 9 8 8 7 7 7 7 8 9 9 10 11 12 13 13 14 15 16 16 17 18 19 20 20 21 21 21 21
30 28 26 25 23 22 20 19 17 16 15 14 13 12 11 10 9 9 8 8 8 9 9 10 11 11 12 13 14 15 16 16 17 18 19 20 21 21 22 22 23 23 23
31 30 28 26 24 23 22 21 19 18 16 15 14 13 12 11 11 11 10 10 10 11 11 12 12 13 14 15 15 16 17 18 19 19 20 21 22 23 23 24 24 25 25
33 31 29 27 26 24 23 22 21 19 18 17 16 15 14 14 13 13 13 12 12 12 13 13 14 15 15 16 17 18 19 20 20 21 22 23 24 25 26 26 26 27 27
36 34 32 29 27 26 25 24 23 21 20 19 18 17 17 16 16 15 15 15 14 14 15 15 16 16 17 18 19 19 20 21 22 23 24 25 26 26 27 28 28 29 29
38 36 34 32 30 28 27 26 25 24 23 22 21 20 19 18 18 18 17 17 17 17 17 17 18 19 19 20 21 21 22 23 24 25 26 27 28 28 29 29 30 31 31
40 38 36 34 32 30 29 28 28 27 26 24 23 22 22 21 21 20 20 20 20 19 19 20 20 21 21 22 23 23 24 25 26 27 28 28 29 30 31 32 32 32 33
42 40 38 36 34 33 32 31 31 30 28 27 26 25 25 24 24 23 23 23 22 22 22 22 22 23 23 24 25 25 26 27 28 28 29 30 31 32 33 33 34 34 34
44 43 41 39 37 36 35 34 34 33 32 31 30 29 28 28 27 27 26 26 25 25 25 25 25 25 26 26 27 27 28 28 29 30 31 32 33 34 34 35 35 35 35
45 44 43 42 40 39 38 37 37 36 35 34 33 33 32 31 30 30 29 29 28 27 27 28 28 28 28 28 29 29 29 30 31 31 32 34 35 35 36 36 37 37 37
47 45 44 43 43 42 40 40 40 39 39 38 37 36 35 35 34 33 33 32 31 30 30 30 30 30 30 31 31 31 31 32 32 33 34 35 36 37 37 38 38 38 38
48 47 46 45 44 44 44 43 42 42 42 41 40 40 39 38 38 37 36 36 35 34 34 33 33 33 33 33 33 33 33 34 34 35 36 37 38 39 39 39 39 39 39
49 47 46 46 46 46 46 45 44 44 44 44 44 44 43 42 41 40 39 39 38 37 37 36 36 36 36 36 36 36 35 35 36 37 38 39 40 40 40 41 41 41 41
49 48 48 47 46 47 47 47 46 46 47 47 46 46 45 45 45 44 42 41 41 40 40 39 39 39 38 39 39 39 37 37 37 39 40 41 41 42 42 43 43 43 43
50 50 49 49 48 49 49 49 48 48 49 49 48 48 47 47 46 45 44 44 44 43 42 42 41 41 41 41 41 41 41 40 40 39 40 41 42 43 44 44 44 44 43
51 51 51 51 50 50 50 50 50 50 50 50 49 49 49 49 48 47 47 47 46 46 45 44 44 43 43 43 43 43 43 43 43 42 41 41 42 43 44 44 44 44 43
53 53 52 52 52 51 50 51 50 51 51 51 51 50 50 50 51 50 49 48 48 47 47 47 46 46 45 45 45 44 44 44 44 45 44 44 44 44 45 44 44 43 43
53 53 53 52 52 52 52 51 51 52 52 52 53 52 52 52 51 51 52 51 50 50 49 48 48 48 47 47 46 46 46 46 46 46 46 46 46 45 45 45 44 44 44
Wind_Direction
216 216 214 212 212 212 213 214 216 218 219 221 221 220 219 220 225 229 242 276 306 329 342 342 344 346 345 346 348 349 349 350 351 351 351 351 351 351 351 351 350 350 350
218 217 216 215 214 215 215 215 217 219 220 221 220 220 222 224 230 234 251 278 305 323 330 332 336 339 341 344 346 347 349 350 350 350 350 350 349 350 350 350 349 348 347
219 219 218 218 218 218 217 217 219 221 221 221 222 223 224 227 233 242 254 279 301 315 323 326 331 335 338 341 343 344 347 347 348 348 348 348 347 348 347 346 346 345 344
220 220 220 221 221 220 219 219 221 223 223 223 223 224 225 230 238 245 256 277 296 309 317 321 327 331 335 338 339 341 343 344 344 345 344 344 344 344 343 342 341 340 339
222 222 222 223 223 222 220 221 221 222 223 224 225 225 227 232 238 246 262 280 295 306 314 318 323 327 330 332 334 336 336 337 339 339 340 339 339 338 338 337 335 334 333
223 223 223 223 223 221 220 221 222 222 223 225 225 226 228 232 240 251 265 280 294 306 312 315 319 322 324 327 329 330 330 331 333 334 335 334 334 333 332 331 329 328 327
224 224 223 223 223 222 221 222 223 223 224 225 226 226 229 235 244 254 266 279 292 303 310 312 314 317 320 322 324 325 325 326 327 329 329 328 327 327 326 324 323 322 321
225 225 224 223 222 222 221 222 224 224 225 226 228 229 233 239 247 256 267 279 290 298 306 309 310 314 317 319 320 320 321 321 322 322 322 322 322 321 320 319 318 317 316
226 226 225 224 223 223 223 223 225 227 228 230 233 235 238 243 251 258 267 278 288 296 302 306 309 312 314 315 315 316 316 317 317 317 317 317 317 317 316 315 314 314 313
226 226 226 226 225 225 225 225 227 229 232 233 237 240 243 248 256 263 271 279 287 295 301 304 307 310 311 312 312 313 313 314 313 313 313 313 314 314 313 312 311 311 310
226 227 228 228 226 227 227 228 229 231 234 237 240 243 248 253 259 266 273 280 286 292 298 302 304 306 308 309 310 311 311 311 311 311 311 311 311 311 310 310 309 308 308
227 228 229 230 229 229 230 230 232 234 236 239 243 246 250 256 262 267 272 278 283 288 293 298 301 303 304 305 306 307 308 309 309 309 308 308 308 308 308 308 308 307 307
226 227 229 231 231 232 232 233 234 236 238 241 245 249 253 257 262 267 272 276 281 285 289 293 296 298 300 301 303 304 305 305 306 306 306 306 306 307 307 307 306 306 306
227 228 230 232 233 234 234 235 237 238 240 243 247 250 254 258 262 266 271 274 278 282 286 290 292 295 297 298 300 301 302 303 304 304 304 304 304 305 305 305 305 305 305
227 229 231 233 234 235 235 237 239 241 242 245 248 252 255 258 261 265 269 272 276 280 283 286 288 291 293 295 297 298 299 299 300 301 302 302 303 303 304 304 305 305 305
227 229 231 233 234 235 237 238 240 242 245 248 250 252 255 258 260 263 267 270 273 276 279 282 285 287 290 292 293 294 295 296 297 299 299 300 301 302 303 303 304 304 304
228 230 231 233 235 236 238 239 241 243 246 249 251 253 255 258 260 262 265 268 271 273 276 279 281 284 286 288 290 291 292 293 295 296 297 298 300 301 301 302 302 303 303
229 231 232 233 235 237 238 240 242 244 246 249 252 255 257 259 260 263 265 268 270 272 275 278 279 282 284 286 287 288 289 291 292 293 295 297 299 299 300 301 302 302 302
231 232 234 235 236 237 239 240 243 245 247 249 252 255 257 259 260 263 265 268 270 272 274 276 278 280 282 284 285 287 288 289 290 292 294 296 297 298 299 300 301 301 301
232 233 235 237 238 239 240 241 243 246 247 250 252 254 256 258 259 261 264 267 270 271 273 275 277 279 281 283 284 285 286 288 289 291 293 295 297 297 298 300 300 301 300
232 234 236 238 240 242 242 242 244 246 248 250 253 254 255 257 259 261 263 266 269 270 272 274 276 278 279 281 283 284 285 286 288 290 293 295 296 297 298 299 300 300 299
233 234 236 238 240 242 244 244 245 246 248 249 251 253 254 256 259 260 262 265 267 269 271 273 275 277 278 280 283 283 284 284 286 289 292 294 295 296 297 298 298 299 298
234 235 237 239 241 242 244 245 246 247 248 249 250 252 253 255 257 260 262 264 266 268 270 272 274 276 277 279 282 284 283 283 284 287 290 292 294 295 296 296 297 297 297
235 236 238 241 242 243 245 245 246 247 247 247 249 251 253 254 256 259 261 263 265 266 269 271 272 274 276 278 280 282 283 284 285 286 287 290 292 293 293 294 295 295 295
235 237 239 240 242 244 245 246 247 248 248 249 250 252 254 255 257 258 260 262 264 266 268 270 271 273 275 277 280 281 283 284 285 287 288 289 290 291 292 293 293 294 294
235 237 239 240 242 243 244 246 247 248 249 251 252 253 254 255 258 259 260 261 263 265 267 269 270 271 274 276 278 280 282 283 284 286 288 289 289 291 292 293 293 294 293